This is the latest recevied weather packets stored in our database for station/object DG9MHV-10. If no packets are shown the sender has not sent any weather packets the latest 10 day(s).
| Time | Temp. | Humidity | Pressure | Rain* | Wind** | Luminosity | Snow |
|---|---|---|---|---|---|---|---|
| 1777842668 | 15° C | 100% | 1014.8 hPa | - | - | - | - |
| 1777841767 | 15° C | 100% | 1014.6 hPa | - | - | - | - |
| 1777840867 | 15.56° C | 100% | 1014.3 hPa | - | - | - | - |
| 1777839967 | 15.56° C | 100% | 1014.1 hPa | - | - | - | - |
| 1777839067 | 16.11° C | 100% | 1014 hPa | - | - | - | - |
| 1777838167 | 16.11° C | 100% | 1013.7 hPa | - | - | - | - |
| 1777837266 | 16.67° C | 100% | 1013.5 hPa | - | - | - | - |
| 1777836366 | 17.22° C | 100% | 1013.4 hPa | - | - | - | - |
| 1777835466 | 17.78° C | 100% | 1013.3 hPa | - | - | - | - |
| 1777834566 | 17.78° C | 100% | 1013.1 hPa | - | - | - | - |
| 1777833666 | 18.89° C | 100% | 1012.9 hPa | - | - | - | - |
| 1777832766 | 19.44° C | 100% | 1012.9 hPa | - | - | - | - |
| 1777831866 | 20° C | 100% | 1012.7 hPa | - | - | - | - |
| 1777830966 | 20.56° C | 100% | 1012.6 hPa | - | - | - | - |
| 1777830066 | 21.11° C | 100% | 1012.7 hPa | - | - | - | - |
| 1777829165 | 21.67° C | 100% | 1012.7 hPa | - | - | - | - |
| 1777828265 | 22.78° C | 90% | 1012.7 hPa | - | - | - | - |
| 1777827365 | 23.89° C | 75% | 1012.7 hPa | - | - | - | - |
| 1777826465 | 25° C | 67% | 1012.7 hPa | - | - | - | - |
| 1777825565 | 25.56° C | 72% | 1012.6 hPa | - | - | - | - |
| 1777823773 | 25° C | 75% | 1012.7 hPa | - | - | - | - |
| 1777822873 | 25° C | 82% | 1012.9 hPa | - | - | - | - |
| 1777821973 | 25.56° C | 82% | 1012.9 hPa | - | - | - | - |
| 1777821073 | 26.11° C | 73% | 1012.8 hPa | - | - | - | - |
| 1777820172 | 26.11° C | 75% | 1012.9 hPa | - | - | - | - |
* Rain since midnight (hover to see other rain measurements)
** Current wind speed in m/s (hover to see current wind gust speed)